STARLINK-2041 (47657 NORAD) Tracking and Keplerian Element Data

This shows tracking and keplerian element data for the satellite.

Feedback or suggestion? Click here.




ElementValue
Catalog47657
NameSTARLINK-2041
Epoch Orbit177
Epoch Day59.91667824
Epoch Year2021
RAAN38.6877
Inclination53.0515
Eccentricity0.0001146
Argument of Perigee66.1008
Mean Anonmoly142.0828
Mean Motion15.72659795
Decay Rate-0.00991722
L11 47657U 21012AP 21059.91667824 -.00991722 00000-0 -79839-2 0 9995
L22 47657 53.0515 38.6877 0001146 66.1008 142.0828 15.72659795 1778

Live tracking and technical data element details for STARLINK-2041 (NORAD 47657). STARLINK-2041 can be tracked NOW for your location showing map with azimuth and elevation plus other details from your city location.

Track the satellite on the map from your city or location and see movement details for azimuth, elevation, latitude, longitude, range, height, and movement on the map or in text.







IsCatalogInMostPopularTable: catalog: 47657, numindb: 4
Update: records affected: 1



GetName: 47657 STARLINK-2041

Hit Count: updated at: Mon, 01 Mar 2021 15:28:39 GMT